DW3725 Oslo NO current weather conditions

sailwx.info

Wind from 243 at 1 knots gusting 6

Air temperature 7.8° C
Dewpoint 6.9° C

Last reported at 2018-Sep-22 00:00 UTC.
Time now 2018-Sep-22 01:07 UTC

Location: N 60°15' E 011°13'.
View on Google Maps.

See reports from other nearby stations

  
Tides and Currents Weather Stations Pressure Air Temp Water Temp Dewpoint Dewpoint Depression Visibility Wind Speed Wind Dir Waves Ship Positions
date/time (UTC)wind fromknots sea level pressurealtimeterstation pressurevisibilityair tempwater tempwave heightnotes
2018-Sep-22 00:00 243 1 gusting 6 7.8
2018-Sep-21 23:50 217 1 gusting 6 7.8
2018-Sep-21 23:40 219 0 gusting 4 8.3
2018-Sep-21 23:35 218 1 gusting 6 8.3
2018-Sep-21 23:30 219 2 gusting 6 8.3
2018-Sep-21 23:20 221 0 gusting 6 8.3
2018-Sep-21 23:15 196 0 gusting 6 8.3
2018-Sep-21 23:10 206 3 gusting 10 8.3
2018-Sep-21 23:05 184 1 gusting 5 8.3
2018-Sep-21 22:50 204 1 gusting 6 8.9
2018-Sep-21 22:45 232 1 gusting 7 8.9
2018-Sep-21 22:40 203 2 gusting 8 8.9
2018-Sep-21 22:35 207 2 gusting 7 8.9
2018-Sep-21 22:30 185 2 gusting 7 8.9
2018-Sep-21 22:25 197 1 gusting 7 8.9
2018-Sep-21 22:20 186 1 gusting 6 8.9
2018-Sep-21 22:15 200 2 gusting 10 8.9
2018-Sep-21 22:10 197 5 gusting 10 8.9
2018-Sep-21 22:00 171 1 gusting 5 8.9
2018-Sep-21 21:50 166 3 gusting 12 8.3
2018-Sep-21 21:45 187 2 gusting 7 8.3
2018-Sep-21 21:35 141 2 gusting 8 8.3
2018-Sep-21 21:30 160 8.3
2018-Sep-21 21:25 132 0 gusting 6 8.3
2018-Sep-21 21:20 124 0 gusting 5 8.3
2018-Sep-21 21:10 120 0 gusting 10 8.3
2018-Sep-21 21:05 053 0 gusting 7 8.3
2018-Sep-21 21:00 088 0 gusting 10 8.3
2018-Sep-21 20:55 119 1 gusting 10 8.3
2018-Sep-21 20:50 120 0 gusting 6 8.3
2018-Sep-21 20:45 193 1 gusting 8 8.3
2018-Sep-21 20:40 120 2 gusting 6 8.3
2018-Sep-21 20:35 122 0 gusting 11 8.3
2018-Sep-21 20:30 112 1 gusting 8 8.9
2018-Sep-21 20:20 139 4 gusting 14 8.9
2018-Sep-21 20:15 170 4 gusting 10 8.9
2018-Sep-21 20:10 155 3 gusting 10 8.9
2018-Sep-21 20:05 135 2 gusting 8 8.9
2018-Sep-21 20:00 186 2 gusting 10 8.9
2018-Sep-21 19:55 173 1 gusting 21 8.9
2018-Sep-21 19:50 125 4 gusting 11 8.9
2018-Sep-21 19:35 183 4 gusting 12 8.9
2018-Sep-21 19:30 171 2 gusting 12 8.9
2018-Sep-21 19:25 158 2 gusting 10 8.9
2018-Sep-21 19:20 161 3 gusting 11 8.9
2018-Sep-21 19:15 154 2 gusting 15 9.4
2018-Sep-21 19:10 191 2 gusting 14 9.4
2018-Sep-21 19:05 168 4 gusting 10 9.4
2018-Sep-21 19:00 144 3 gusting 13 9.4
2018-Sep-21 18:50 173 4 gusting 14 9.4
2018-Sep-21 18:45 194 8 gusting 20 9.4
2018-Sep-21 18:35 169 5 gusting 12 9.4
2018-Sep-21 18:30 099 4 gusting 13 9.4
2018-Sep-21 18:25 184 2 gusting 13 9.4
2018-Sep-21 18:20 164 2 gusting 13 9.4
2018-Sep-21 18:10 164 4 gusting 19 9.4
2018-Sep-21 18:05 166 4 gusting 17 9.4
2018-Sep-21 17:50 177 4 gusting 20 10.0
2018-Sep-21 17:45 178 6 gusting 13 9.4
2018-Sep-21 17:40 185 8 gusting 21 9.4
2018-Sep-21 17:35 170 6 gusting 14 9.4
2018-Sep-21 17:25 155 5 gusting 15 9.4
2018-Sep-21 17:20 181 3 gusting 11 9.4
2018-Sep-21 17:10 168 5 gusting 15 9.4
2018-Sep-21 17:05 172 6 gusting 17 10.0
2018-Sep-21 16:55 189 5 gusting 15 10.0
2018-Sep-21 16:45 171 7 gusting 15 10.6
2018-Sep-21 16:40 188 5 gusting 20 10.6
2018-Sep-21 16:35 174 3 gusting 11 11.1
2018-Sep-21 16:25 182 5 gusting 13 11.1
2018-Sep-21 16:20 185 9 gusting 22 11.1
2018-Sep-21 16:15 185 6 gusting 17 11.1
2018-Sep-21 16:05 189 5 gusting 22 11.1
2018-Sep-21 16:00 185 7 gusting 17 11.1
2018-Sep-21 15:55 197 7 gusting 17 11.1
2018-Sep-21 15:50 202 8 gusting 19 11.1
2018-Sep-21 15:45 191 7 gusting 22 11.1
2018-Sep-21 15:40 194 8 gusting 18 11.1
2018-Sep-21 15:35 189 6 gusting 26 11.1
2018-Sep-21 15:30 183 7 gusting 17 11.7
2018-Sep-21 15:25 213 8 gusting 26 11.7
2018-Sep-21 15:20 199 4 gusting 17 12.2
2018-Sep-21 15:15 192 6 gusting 24 12.2
2018-Sep-21 15:10 200 5 gusting 17 12.2
2018-Sep-21 15:05 199 7 gusting 18 12.2
2018-Sep-21 14:55 191 7 gusting 20 12.2
2018-Sep-21 14:45 213 8 gusting 19 12.2
2018-Sep-21 14:40 202 10 gusting 19 12.2
2018-Sep-21 14:35 214 10 gusting 24 12.2
2018-Sep-21 14:30 204 9 gusting 20 12.2
2018-Sep-21 14:25 182 11 gusting 22 12.8
2018-Sep-21 14:20 177 10 gusting 25 12.8
2018-Sep-21 14:10 183 6 gusting 17 13.9
2018-Sep-21 13:55 202 11 gusting 28 13.9
2018-Sep-21 13:50 189 7 gusting 22 14.4
2018-Sep-21 13:45 193 12 gusting 22 14.4
2018-Sep-21 13:35 169 6 gusting 17 14.4
2018-Sep-21 13:25 160 2 gusting 10 14.4
2018-Sep-21 13:20 143 5 gusting 11 14.4
2018-Sep-21 13:15 177 4 gusting 10 14.4
2018-Sep-21 13:10 189 3 gusting 13 14.4
2018-Sep-21 13:05 157 4 gusting 10 14.4
2018-Sep-21 13:00 152 4 gusting 13 14.4
2018-Sep-21 12:55 190 2 gusting 10 14.4
2018-Sep-21 12:50 168 3 gusting 12 14.4
2018-Sep-21 12:45 197 5 gusting 15 14.4
2018-Sep-21 12:35 194 6 gusting 15 14.4
2018-Sep-21 12:30 177 6 gusting 17 14.4
2018-Sep-21 12:25 172 5 gusting 12 14.4
2018-Sep-21 12:10 195 4 gusting 8 13.9
2018-Sep-21 12:00 167 1 gusting 6 13.9
2018-Sep-21 11:55 183 1 gusting 7 13.3
2018-Sep-21 11:50 168 1 gusting 6 13.3
2018-Sep-21 11:45 184 1 gusting 6 12.8
2018-Sep-21 11:40 183 1 gusting 5 12.8
2018-Sep-21 11:35 222 1 gusting 6 12.8
2018-Sep-21 11:30 199 1 gusting 7 12.2
2018-Sep-21 11:25 205 0 gusting 7 11.7
2018-Sep-21 11:20 200 11.1
2018-Sep-21 11:10 190 10.6
2018-Sep-21 11:00 245 10.0
2018-Sep-21 10:55 245 10.0
2018-Sep-21 10:50 245 10.0
2018-Sep-21 10:45 245 10.0
2018-Sep-21 10:35 269 3 gusting 5 10.0
2018-Sep-21 10:30 142 9.4
2018-Sep-21 10:25 144 9.4
2018-Sep-21 10:15 262 1 gusting 6 9.4
2018-Sep-21 10:05 169 9.4
2018-Sep-21 10:00 267 9.4
2018-Sep-21 09:55 270 1 gusting 2 9.4
2018-Sep-21 09:50 246 0 gusting 2 9.4
2018-Sep-21 09:40 196 1 gusting 2 8.9
2018-Sep-21 09:30 311 8.3
2018-Sep-21 09:25 297 8.3
2018-Sep-21 09:20 334 8.3
2018-Sep-21 09:15 334 8.3
2018-Sep-21 09:10 334 8.3
2018-Sep-21 09:05 333 8.3
2018-Sep-21 09:00 333 8.3
2018-Sep-21 08:55 333 7.8
2018-Sep-21 08:50 333 7.8
2018-Sep-21 08:40 331 7.8
2018-Sep-21 08:25 331 7.8
2018-Sep-21 08:20 322 0 gusting 2 7.8
2018-Sep-21 08:05 338 7.2
2018-Sep-21 07:55 316 7.2
2018-Sep-21 07:50 316 7.2
2018-Sep-21 07:45 313 7.2
2018-Sep-21 07:40 320 0 gusting 2 7.2
2018-Sep-21 07:35 347 7.2
2018-Sep-21 07:20 028 7.2
2018-Sep-21 07:10 037 6.7
2018-Sep-21 07:00 337 6.7
2018-Sep-21 06:55 333 6.7
2018-Sep-21 06:50 336 6.7
2018-Sep-21 06:40 278 0 gusting 2 6.7
2018-Sep-21 06:35 313 0 gusting 2 6.7
2018-Sep-21 06:05 032 0 gusting 2 6.7
2018-Sep-21 06:00 019 0 gusting 2 6.7
2018-Sep-21 05:55 012 6.7
2018-Sep-21 05:45 019 0 gusting 2 6.7
2018-Sep-21 05:40 026 6.7
2018-Sep-21 05:35 032 6.7
2018-Sep-21 05:30 6.7
2018-Sep-21 05:25 353 6.7
2018-Sep-21 05:15 351 6.7
2018-Sep-21 05:10 086 6.7
2018-Sep-21 05:05 086 6.7
2018-Sep-21 04:55 086 6.7
2018-Sep-21 04:45 133 6.7
2018-Sep-21 04:40 121 6.7
2018-Sep-21 04:30 121 6.7
2018-Sep-21 04:25 130 6.7
2018-Sep-21 04:20 130 6.7
2018-Sep-21 04:10 140 6.7
2018-Sep-21 04:05 140 6.7
2018-Sep-21 04:00 140 6.7
2018-Sep-21 03:45 165 6.7
2018-Sep-21 03:40 166 6.7
2018-Sep-21 03:35 141 6.7
2018-Sep-21 03:30 117 6.7
2018-Sep-21 03:20 126 0 gusting 2 6.7
2018-Sep-21 03:10 144 7.2
2018-Sep-21 03:05 170 7.2
2018-Sep-21 03:00 147 7.2
2018-Sep-21 02:55 106 7.2
2018-Sep-21 02:50 165 7.2
2018-Sep-21 02:45 167 7.2
2018-Sep-21 02:40 157 7.2
2018-Sep-21 02:30 123 7.2
2018-Sep-21 02:25 168 7.2
2018-Sep-21 02:20 156 7.2
2018-Sep-21 02:15 169 1 gusting 5 7.8
2018-Sep-21 02:05 183 1 gusting 5 7.8
2018-Sep-21 02:00 173 1 gusting 6 8.3
2018-Sep-21 01:55 153 1 gusting 6 8.3
2018-Sep-21 01:45 186 3 gusting 8 8.9
2018-Sep-21 01:40 194 5 gusting 15 9.4
2018-Sep-21 01:35 217 5 gusting 10 10.0
2018-Sep-21 01:25 178 5 gusting 10 10.0
2018-Sep-21 01:20 191 2 gusting 7 10.0
2018-Sep-21 01:15 199 1 gusting 7 10.0
2018-Sep-21 00:50 185 1 gusting 5 10.0
2018-Sep-21 00:45 182 2 gusting 6 10.0
2018-Sep-21 00:40 180 1 gusting 6 10.0
2018-Sep-21 00:35 192 0 gusting 5 10.0
2018-Sep-21 00:30 185 0 gusting 2 10.0
2018-Sep-21 00:25 181 1 gusting 7 10.0
2018-Sep-21 00:20 179 2 gusting 5 10.0
2018-Sep-21 00:15 181 1 gusting 5 10.0
2018-Sep-21 00:10 174 0 gusting 2 10.0
2018-Sep-21 00:05 186 1 gusting 2 10.0
2018-Sep-20 23:55 180 2 gusting 6 10.0
2018-Sep-20 23:50 169 1 gusting 6 10.0
2018-Sep-20 23:45 180 1 gusting 6 10.0
2018-Sep-20 23:40 186 2 gusting 6 10.0
2018-Sep-20 23:35 188 1 gusting 6 10.0
2018-Sep-20 23:30 173 3 gusting 7 10.0
2018-Sep-20 23:20 170 1 gusting 5 10.0
2018-Sep-20 23:15 213 2 gusting 6 10.0
2018-Sep-20 23:10 166 1 gusting 6 10.0
2018-Sep-20 23:00 187 1 gusting 8 10.0
2018-Sep-20 22:50 211 1 gusting 5 10.0
2018-Sep-20 22:40 203 0 gusting 2 10.0
2018-Sep-20 22:30 207 0 gusting 5 10.0
2018-Sep-20 22:25 216 10.0
2018-Sep-20 22:15 181 9.4
2018-Sep-20 22:10 194 9.4
2018-Sep-20 22:05 178 9.4
2018-Sep-20 22:00 208 0 gusting 5 9.4
2018-Sep-20 21:55 158 1 gusting 6 9.4
2018-Sep-20 21:40 355 8.9
2018-Sep-20 21:35 355 9.4
2018-Sep-20 21:30 355 9.4
2018-Sep-20 21:10 113 10.0
2018-Sep-20 21:05 173 10.0
2018-Sep-20 20:55 186 0 gusting 6 10.0
2018-Sep-20 20:40 187 2 gusting 7 10.0
2018-Sep-20 20:35 168 2 gusting 4 10.0
2018-Sep-20 20:30 207 1 gusting 2 10.0
2018-Sep-20 20:20 209 1 gusting 4 10.0
2018-Sep-20 20:15 195 0 gusting 5 10.0
2018-Sep-20 20:10 200 0 gusting 1 10.0
2018-Sep-20 20:05 217 0 gusting 4 10.0
2018-Sep-20 20:00 162 0 gusting 2 10.0
2018-Sep-20 19:55 172 10.0
2018-Sep-20 19:50 160 0 gusting 4 10.6
2018-Sep-20 19:45 165 0 gusting 4 10.6
2018-Sep-20 19:35 217 0 gusting 6 10.0
2018-Sep-20 19:25 193 2 gusting 6 10.0
2018-Sep-20 19:20 187 1 gusting 7 10.0
2018-Sep-20 19:15 186 1 gusting 5 10.0
2018-Sep-20 19:00 192 1 gusting 6 10.6
2018-Sep-20 18:55 202 2 gusting 6 10.6
2018-Sep-20 18:50 234 3 gusting 7 10.6
2018-Sep-20 18:45 199 2 gusting 6 10.6
2018-Sep-20 18:40 252 2 gusting 7 10.6
2018-Sep-20 18:35 208 2 gusting 8 10.6
2018-Sep-20 18:25 171 2 gusting 6 10.6
2018-Sep-20 18:20 198 2 gusting 7 10.6
2018-Sep-20 18:15 205 1 gusting 12 10.0
2018-Sep-20 18:10 205 3 gusting 10 10.0
2018-Sep-20 18:00 217 4 gusting 11 8.9
2018-Sep-20 17:55 173 2 gusting 7 8.3
2018-Sep-20 17:50 200 2 gusting 7 8.3
2018-Sep-20 17:45 182 1 gusting 4 7.8
2018-Sep-20 17:35 217 8.3
2018-Sep-20 17:30 217 8.3
2018-Sep-20 17:20 217 8.9
2018-Sep-20 17:15 217 9.4
2018-Sep-20 17:10 217 9.4
2018-Sep-20 17:00 217 10.0
2018-Sep-20 16:55 217 10.6
2018-Sep-20 16:40 213 10.6
2018-Sep-20 16:35 226 11.1
2018-Sep-20 16:25 239 1 gusting 4 11.1
2018-Sep-20 16:10 261 1 gusting 6 11.1
2018-Sep-20 16:05 276 3 gusting 8 11.1
2018-Sep-20 15:55 255 2 gusting 8 11.7
2018-Sep-20 15:45 279 7 gusting 13 12.8
2018-Sep-20 15:40 281 6 gusting 13 13.3
2018-Sep-20 15:35 282 6 gusting 12 13.9
2018-Sep-20 15:30 235 5 gusting 17 13.9
2018-Sep-20 15:25 235 6 gusting 13 14.4
2018-Sep-20 15:20 222 6 gusting 13 14.4
2018-Sep-20 15:10 232 7 gusting 19 14.4
2018-Sep-20 15:05 250 6 gusting 19 14.4
2018-Sep-20 15:00 220 5 gusting 12 14.4
2018-Sep-20 14:55 227 6 gusting 14 14.4
2018-Sep-20 14:50 209 7 gusting 17 15.0
2018-Sep-20 14:40 219 3 gusting 11 14.4
2018-Sep-20 14:35 220 6 gusting 13 14.4
2018-Sep-20 14:30 203 6 gusting 17 15.0
2018-Sep-20 14:25 232 7 gusting 13 15.0
2018-Sep-20 14:20 218 5 gusting 15 15.0
2018-Sep-20 14:15 214 6 gusting 17 15.0
2018-Sep-20 14:05 198 5 gusting 12 16.1
2018-Sep-20 14:00 242 6 gusting 12 16.1
2018-Sep-20 13:55 201 4 gusting 14 15.6
2018-Sep-20 13:50 210 5 gusting 19 15.6
2018-Sep-20 13:45 228 8 gusting 14 16.1
2018-Sep-20 13:40 227 6 gusting 17 15.6
2018-Sep-20 13:30 230 7 gusting 21 15.6
2018-Sep-20 13:25 213 10 gusting 22 15.6
2018-Sep-20 13:20 218 7 gusting 17 15.0
2018-Sep-20 13:15 212 4 gusting 13 15.0
2018-Sep-20 13:10 201 7 gusting 17 15.0
2018-Sep-20 13:05 212 6 gusting 15 15.0
2018-Sep-20 13:00 218 6 gusting 19 15.0
2018-Sep-20 12:55 206 7 gusting 18 15.6
2018-Sep-20 12:50 217 6 gusting 17 15.6
2018-Sep-20 12:40 217 8 gusting 20 15.6
2018-Sep-20 12:30 207 8 gusting 17 15.6
2018-Sep-20 12:25 227 9 gusting 19 15.6
2018-Sep-20 12:15 196 3 gusting 13 15.0
2018-Sep-20 12:10 197 9 gusting 19 15.0
2018-Sep-20 12:05 211 7 gusting 17 15.0
2018-Sep-20 12:00 226 6 gusting 15 15.0
2018-Sep-20 11:55 180 6 gusting 15 15.0
2018-Sep-20 11:50 218 8 gusting 21 15.0
2018-Sep-20 11:35 205 9 gusting 17 15.0
2018-Sep-20 11:30 213 7 gusting 18 14.4
2018-Sep-20 11:25 209 7 gusting 17 14.4
2018-Sep-20 11:20 188 7 gusting 15 14.4
2018-Sep-20 11:15 206 7 gusting 17 14.4
2018-Sep-20 11:10 208 8 gusting 17 14.4
2018-Sep-20 11:05 197 7 gusting 17 13.9
2018-Sep-20 10:55 205 7 gusting 17 13.9
2018-Sep-20 10:50 201 6 gusting 13 14.4
2018-Sep-20 10:45 203 8 gusting 19 14.4
2018-Sep-20 10:40 213 8 gusting 14 14.4
2018-Sep-20 10:35 209 6 gusting 25 13.9
2018-Sep-20 10:30 219 6 gusting 17 13.9
2018-Sep-20 10:25 220 6 gusting 17 13.9
2018-Sep-20 10:20 191 6 gusting 17 13.9
2018-Sep-20 10:10 210 7 gusting 13 13.9
2018-Sep-20 10:05 219 8 gusting 15 13.9
2018-Sep-20 10:00 188 7 gusting 15 13.9
2018-Sep-20 09:55 202 7 gusting 17 13.9
2018-Sep-20 09:50 212 9 gusting 19 13.9
2018-Sep-20 09:45 224 5 gusting 15 13.9
2018-Sep-20 09:40 204 6 gusting 13 13.9
2018-Sep-20 09:30 219 6 gusting 17 13.3
2018-Sep-20 09:25 207 7 gusting 17 13.3
2018-Sep-20 09:20 198 4 gusting 15 13.3
2018-Sep-20 09:15 180 8 gusting 17 13.3
2018-Sep-20 09:10 226 9 gusting 22 12.8
2018-Sep-20 09:05 203 6 gusting 14 12.8
2018-Sep-20 09:00 203 6 gusting 17 12.8
2018-Sep-20 08:55 189 9 gusting 17 12.8
2018-Sep-20 08:50 208 7 gusting 18 12.8
2018-Sep-20 08:35 191 7 gusting 18 12.8
2018-Sep-20 08:30 213 6 gusting 17 12.2
2018-Sep-20 08:25 208 7 gusting 18 12.2
2018-Sep-20 08:15 217 9 gusting 19 12.2
2018-Sep-20 08:10 238 5 gusting 13 12.2
2018-Sep-20 08:05 211 5 gusting 13 12.2
2018-Sep-20 08:00 223 6 gusting 19 11.7
2018-Sep-20 07:55 197 5 gusting 19 11.7
2018-Sep-20 07:40 210 7 gusting 20 11.1
2018-Sep-20 07:30 204 8 gusting 20 11.1
2018-Sep-20 07:25 203 6 gusting 15 11.1
2018-Sep-20 07:20 204 6 gusting 17 11.1
2018-Sep-20 07:15 211 6 gusting 21 11.1
2018-Sep-20 07:05 195 8 gusting 21 11.1
2018-Sep-20 07:00 201 8 gusting 18 11.1
2018-Sep-20 06:50 209 8 gusting 21 10.6
2018-Sep-20 06:45 193 5 gusting 17 10.6
2018-Sep-20 06:40 201 8 gusting 20 10.6
2018-Sep-20 06:35 189 5 gusting 15 10.6
2018-Sep-20 06:25 193 5 gusting 17 10.6
2018-Sep-20 06:20 197 6 gusting 15 10.6
2018-Sep-20 06:10 198 7 gusting 15 10.6
2018-Sep-20 06:05 211 5 gusting 17 10.6
2018-Sep-20 06:00 188 6 gusting 17 10.6
2018-Sep-20 05:55 199 6 gusting 22 10.6
2018-Sep-20 05:50 193 7 gusting 15 10.6
2018-Sep-20 05:45 209 7 gusting 21 10.6
2018-Sep-20 05:40 203 7 gusting 17 10.6
2018-Sep-20 05:25 189 7 gusting 15 10.6
2018-Sep-20 05:20 201 7 gusting 13 10.6
2018-Sep-20 05:15 204 7 gusting 14 10.6
2018-Sep-20 05:10 197 7 gusting 20 11.1
2018-Sep-20 05:05 198 6 gusting 19 11.1
2018-Sep-20 05:00 198 6 gusting 15 11.1
2018-Sep-20 04:50 202 6 gusting 13 11.1
2018-Sep-20 04:45 197 6 gusting 17 11.1
2018-Sep-20 04:35 191 7 gusting 18 11.1
2018-Sep-20 04:25 191 7 gusting 14 11.1
2018-Sep-20 04:15 195 5 gusting 13 11.1
2018-Sep-20 04:05 205 5 gusting 13 11.7
2018-Sep-20 04:00 194 6 gusting 14 11.7
2018-Sep-20 03:55 205 4 gusting 18 11.7
2018-Sep-20 03:50 185 4 gusting 13 11.7
2018-Sep-20 03:45 207 4 gusting 12 11.7
2018-Sep-20 03:40 194 6 gusting 15 11.7
2018-Sep-20 03:25 193 5 gusting 10 11.7
2018-Sep-20 03:20 223 4 gusting 17 11.7
2018-Sep-20 03:15 192 6 gusting 17 11.7
2018-Sep-20 03:10 203 6 gusting 17 11.7
2018-Sep-20 03:00 201 6 gusting 19 12.2
2018-Sep-20 02:55 188 6 gusting 22 12.2
2018-Sep-20 02:45 210 6 gusting 15 12.2
2018-Sep-20 02:35 206 6 gusting 13 12.2
2018-Sep-20 02:30 205 7 gusting 17 12.2
2018-Sep-20 02:25 199 7 gusting 18 12.2
2018-Sep-20 02:20 182 6 gusting 19 12.2
2018-Sep-20 02:15 204 6 gusting 17 12.8
2018-Sep-20 02:10 194 7 gusting 14 12.8
2018-Sep-20 02:05 195 6 gusting 18 12.8
2018-Sep-20 02:00 184 7 gusting 18 12.8
2018-Sep-20 01:55 215 7 gusting 15 12.8
2018-Sep-20 01:50 201 6 gusting 13 12.8
2018-Sep-20 01:45 198 6 gusting 12 12.8
2018-Sep-20 01:40 199 6 gusting 15 12.8
2018-Sep-20 01:35 178 7 gusting 19 12.8
2018-Sep-20 01:30 204 6 gusting 15 13.3
2018-Sep-20 01:20 207 6 gusting 17 13.3
2018-Sep-20 01:15 179 4 gusting 13 13.3
2018-Sep-20 01:10 212 6 gusting 15 13.3
2018-Sep-20 01:05 177 7 gusting 17 13.3
2018-Sep-20 01:00 194 5 gusting 13 13.3